When you browse on this site, cookies collect data to enhance your experience and personalize the content and advertising you see.
Visit our Privacy Policy to learn more. By continuing to use the site, you agree to this use of cookies and data.

Previsão horária em Székesfehérvár

Hoje, 5 Agosto, Quarta-feira

Tempo Temperatura Precipitação Vento Pressão Humidade
00:00 +16°C° 0.5 mm 6 m/s 747 mmHg 89%
01:00 +15°C° 0.5 mm 5 m/s 748 mmHg 89%
02:00 +15°C° 0 mm 6 m/s 748 mmHg 88%
03:00 +15°C° 0 mm 6 m/s 748 mmHg 88%
04:00 +15°C° 0 mm 6 m/s 748 mmHg 87%
05:00 +15°C° 0.4 mm 5 m/s 748 mmHg 88%
06:00 +16°C° 0.4 mm 5 m/s 748 mmHg 90%
07:00 +16°C° 0.4 mm 5 m/s 748 mmHg 91%
08:00 +18°C° 0 mm 4 m/s 749 mmHg 90%
09:00 +18°C° 0 mm 4 m/s 749 mmHg 89%
10:00 +19°C° 0 mm 3 m/s 750 mmHg 88%
11:00 +20°C° 0 mm 4 m/s 750 mmHg 85%
12:00 +21°C° 0 mm 4 m/s 749 mmHg 82%
13:00 +22°C° 0 mm 4 m/s 749 mmHg 79%
14:00 +23°C° 0 mm 4 m/s 749 mmHg 76%
15:00 +25°C° 0 mm 5 m/s 749 mmHg 74%
16:00 +25°C° 0 mm 5 m/s 749 mmHg 72%
17:00 +23°C° 0.1 mm 5 m/s 749 mmHg 75%
18:00 +23°C° 0.1 mm 4 m/s 749 mmHg 79%
19:00 +22°C° 0.1 mm 4 m/s 749 mmHg 82%
20:00 +21°C° 0.3 mm 4 m/s 749 mmHg 84%
21:00 +20°C° 0.3 mm 3 m/s 750 mmHg 85%
22:00 +20°C° 0.3 mm 3 m/s 750 mmHg 86%
23:00 +19°C° 0.4 mm 3 m/s 750 mmHg 88%

Amanhã, 6 Agosto, Quinta-feira

Tempo Temperatura Precipitação Vento Pressão Humidade
00:00 +19°C° 0.4 mm 3 m/s 750 mmHg 89%
01:00 +19°C° 0.4 mm 3 m/s 750 mmHg 91%
02:00 +19°C° 0.1 mm 3 m/s 750 mmHg 91%
03:00 +19°C° 0.1 mm 3 m/s 750 mmHg 90%
04:00 +18°C° 0.1 mm 3 m/s 750 mmHg 90%
05:00 +19°C° 0 mm 3 m/s 751 mmHg 88%
06:00 +20°C° 0 mm 3 m/s 751 mmHg 87%
07:00 +20°C° 0 mm 3 m/s 751 mmHg 85%
08:00 +21°C° 0 mm 3 m/s 751 mmHg 81%
09:00 +22°C° 0 mm 3 m/s 752 mmHg 77%
10:00 +24°C° 0 mm 3 m/s 752 mmHg 74%
11:00 +26°C° 0 mm 3 m/s 752 mmHg 66%
12:00 +28°C° 0 mm 3 m/s 752 mmHg 59%
13:00 +29°C° 0 mm 3 m/s 752 mmHg 52%
14:00 +30°C° 0 mm 3 m/s 752 mmHg 52%
15:00 +30°C° 0 mm 3 m/s 751 mmHg 52%
16:00 +30°C° 0 mm 4 m/s 751 mmHg 51%
17:00 +28°C° 0 mm 3 m/s 751 mmHg 57%
18:00 +26°C° 0 mm 2 m/s 752 mmHg 62%
19:00 +25°C° 0 mm 1 m/s 752 mmHg 68%
20:00 +24°C° 0 mm 1 m/s 752 mmHg 69%
21:00 +23°C° 0 mm 1 m/s 752 mmHg 70%
22:00 +23°C° 0 mm 2 m/s 753 mmHg 71%
23:00 +21°C° 0 mm 2 m/s 753 mmHg 71%

Depois de amanhã, 7 Agosto, Sexta-feira

Tempo Temperatura Precipitação Vento Pressão Humidade
00:00 +21°C° 0 mm 2 m/s 753 mmHg 70%
01:00 +21°C° 0 mm 2 m/s 753 mmHg 70%
02:00 +20°C° 0 mm 2 m/s 753 mmHg 72%
03:00 +20°C° 0 mm 2 m/s 753 mmHg 74%
04:00 +20°C° 0 mm 2 m/s 753 mmHg 76%
05:00 +21°C° 0 mm 2 m/s 753 mmHg 73%
06:00 +22°C° 0 mm 3 m/s 753 mmHg 71%
07:00 +24°C° 0 mm 3 m/s 754 mmHg 68%
08:00 +26°C° 0 mm 3 m/s 754 mmHg 62%
09:00 +28°C° 0 mm 3 m/s 754 mmHg 57%
10:00 +29°C° 0 mm 3 m/s 754 mmHg 51%
11:00 +30°C° 0 mm 4 m/s 754 mmHg 47%
12:00 +32°C° 0 mm 4 m/s 753 mmHg 44%
13:00 +33°C° 0 mm 4 m/s 753 mmHg 40%
14:00 +33°C° 0 mm 4 m/s 753 mmHg 40%
15:00 +33°C° 0 mm 4 m/s 753 mmHg 41%
16:00 +33°C° 0 mm 3 m/s 752 mmHg 41%
17:00 +30°C° 0 mm 3 m/s 752 mmHg 47%
18:00 +28°C° 0 mm 2 m/s 752 mmHg 53%
19:00 +26°C° 0 mm 1 m/s 752 mmHg 59%
20:00 +26°C° 0 mm 1 m/s 752 mmHg 60%
21:00 +25°C° 0 mm 1 m/s 752 mmHg 62%
22:00 +24°C° 0 mm 1 m/s 752 mmHg 64%
23:00 +24°C° 0 mm 1 m/s 752 mmHg 66%

8 Agosto, Sábado

Tempo Temperatura Precipitação Vento Pressão Humidade
00:00 +23°C° 0 mm 1 m/s 752 mmHg 69%
01:00 +23°C° 0 mm 1 m/s 752 mmHg 71%
02:00 +22°C° 0 mm 1 m/s 752 mmHg 72%
03:00 +21°C° 0 mm 2 m/s 752 mmHg 73%
04:00 +21°C° 0 mm 2 m/s 752 mmHg 73%
05:00 +23°C° 0 mm 2 m/s 752 mmHg 70%
06:00 +24°C° 0 mm 2 m/s 752 mmHg 67%
07:00 +26°C° 0 mm 2 m/s 752 mmHg 63%
08:00 +27°C° 0 mm 2 m/s 752 mmHg 59%
09:00 +29°C° 0 mm 2 m/s 752 mmHg 54%
10:00 +30°C° 0 mm 3 m/s 752 mmHg 50%
11:00 +31°C° 0 mm 3 m/s 752 mmHg 47%
12:00 +33°C° 0 mm 3 m/s 751 mmHg 45%
13:00 +33°C° 0 mm 3 m/s 751 mmHg 42%
14:00 +32°C° 0 mm 2 m/s 750 mmHg 44%
15:00 +32°C° 0 mm 2 m/s 750 mmHg 45%
16:00 +31°C° 0 mm 2 m/s 750 mmHg 47%
17:00 +30°C° 0 mm 2 m/s 750 mmHg 50%
18:00 +29°C° 0 mm 2 m/s 749 mmHg 53%
19:00 +27°C° 0 mm 1 m/s 749 mmHg 57%
20:00 +27°C° 0 mm 1 m/s 749 mmHg 58%
21:00 +26°C° 0 mm 1 m/s 750 mmHg 59%
22:00 +25°C° 0 mm 1 m/s 750 mmHg 60%
23:00 +24°C° 0 mm 1 m/s 750 mmHg 62%

9 Agosto, Domingo

Tempo Temperatura Precipitação Vento Pressão Humidade
00:00 +24°C° 0 mm 1 m/s 749 mmHg 63%
01:00 +23°C° 0 mm 1 m/s 749 mmHg 65%
02:00 +23°C° 0 mm 1 m/s 749 mmHg 67%
03:00 +23°C° 0 mm 1 m/s 749 mmHg 68%
04:00 +23°C° 0 mm 2 m/s 749 mmHg 70%
05:00 +24°C° 0 mm 2 m/s 749 mmHg 69%
06:00 +25°C° 0 mm 2 m/s 749 mmHg 67%
07:00 +26°C° 0 mm 2 m/s 749 mmHg 66%
08:00 +27°C° 0 mm 2 m/s 749 mmHg 61%
09:00 +29°C° 0 mm 2 m/s 749 mmHg 56%
10:00 +30°C° 0 mm 2 m/s 749 mmHg 51%
11:00 +31°C° 0 mm 2 m/s 749 mmHg 47%
12:00 +32°C° 0 mm 2 m/s 748 mmHg 44%
13:00 +34°C° 0 mm 2 m/s 748 mmHg 40%
14:00 +33°C° 0 mm 1 m/s 748 mmHg 40%
15:00 +32°C° 0 mm 1 m/s 748 mmHg 41%
16:00 +32°C° 0 mm 1 m/s 747 mmHg 41%
17:00 +31°C° 0 mm 1 m/s 747 mmHg 45%
18:00 +29°C° 0 mm 1 m/s 747 mmHg 49%
19:00 +27°C° 0 mm 1 m/s 747 mmHg 53%
20:00 +26°C° 0.1 mm 1 m/s 747 mmHg 58%
21:00 +25°C° 0.1 mm 1 m/s 748 mmHg 63%
22:00 +24°C° 0.1 mm 1 m/s 748 mmHg 67%
23:00 +24°C° 0.1 mm 1 m/s 748 mmHg 69%

10 Agosto, Segunda-feira

Tempo Temperatura Precipitação Vento Pressão Humidade
00:00 +24°C° 0.1 mm 1 m/s 747 mmHg 72%
01:00 +23°C° 0.1 mm 1 m/s 747 mmHg 74%
02:00 +23°C° 0 mm 1 m/s 747 mmHg 77%
03:00 +22°C° 0 mm 1 m/s 747 mmHg 80%
04:00 +22°C° 0 mm 1 m/s 747 mmHg 83%
05:00 +23°C° 0.1 mm 1 m/s 747 mmHg 80%
06:00 +24°C° 0.1 mm 1 m/s 748 mmHg 77%
07:00 +25°C° 0.1 mm 1 m/s 748 mmHg 74%
08:00 +26°C° 0 mm 1 m/s 748 mmHg 69%
09:00 +27°C° 0 mm 2 m/s 748 mmHg 64%
10:00 +29°C° 0 mm 2 m/s 748 mmHg 60%
11:00 +30°C° 0.7 mm 1 m/s 748 mmHg 56%
12:00 +30°C° 0.7 mm 1 m/s 748 mmHg 53%
13:00 +31°C° 0.7 mm 1 m/s 747 mmHg 49%
14:00 +31°C° 0.1 mm 1 m/s 747 mmHg 48%
15:00 +31°C° 0.1 mm 1 m/s 747 mmHg 47%
16:00 +31°C° 0.1 mm 1 m/s 747 mmHg 46%
17:00 +30°C° 0 mm 1 m/s 747 mmHg 51%
18:00 +28°C° 0 mm 1 m/s 747 mmHg 56%
19:00 +27°C° 0 mm 1 m/s 747 mmHg 61%
20:00 +26°C° 0.6 mm 1 m/s 747 mmHg 68%
21:00 +24°C° 0.6 mm 1 m/s 747 mmHg 75%
22:00 +23°C° 0.6 mm 1 m/s 748 mmHg 82%
23:00 +23°C° 0.2 mm 1 m/s 748 mmHg 83%
Mostrar mais